This demonstration page uses our WeatherBlox Daily Observations layout. Learn more.

Left ArrowRight Arrow

39.95238, -75.16362

Hourly Observations for August 9, 2022

Temp ( °F °C ) Dew Point ( °F °C ) Humidity (%) Winds ( mph kmh ) Pressure ( in mb ) Visibility ( mi km ) Precip ( " mm )
12:54 am 00:54 Partly Cloudy 85 29.4 76 24.4 75 75 SSW 9 15 29.96 1015 10 16 0.00 0.00
1:54 am 01:54 Mostly Clear 84 28.9 77 25 80 80 SW 9 15 29.94 1014 10 16 0.00 0.00
2:54 am 02:54 Partly Cloudy 83 28.3 77 25 82 82 SSW 8 13 29.93 1014 10 16 0.00 0.00
3:54 am 03:54 Partly Cloudy 83 28.3 77 25 82 82 VRB 7 11 29.93 1013 10 16 0.00 0.00
4:54 am 04:54 Mostly Clear 82 27.8 77 25 85 85 SW 13 20 29.93 1014 10 16 0.00 0.00
5:54 am 05:54 Mostly Clear 82 27.8 76 24.4 82 82 SW 12 19 29.94 1014 10 16 0.00 0.00
6:54 am 06:54 Mostly Sunny 82 27.8 76 24.4 82 82 SW 14 22 29.95 1014 10 16 0.00 0.00
7:54 am 07:54 Mostly Sunny 84 28.9 76 24.4 77 77 SW 12 19 29.96 1015 10 16 0.00 0.00
8:54 am 08:54 Mostly Sunny 86 30 74 23.3 67 67 SW 12 19 29.96 1015 10 16 0.00 0.00
9:54 am 09:54 Mostly Sunny 89 31.7 74 23.3 61 61 SW 15 24 29.96 1015 10 16 0.00 0.00
10:54 am 10:54 Partly Cloudy 91 32.8 73 22.8 56 56 WSW 12 19 29.96 1014 10 16 0.00 0.00
11:54 am 11:54 Partly Cloudy 93 33.9 73 22.8 52 52 SW 14 22 29.95 1014 10 16 0.00 0.00
12:54 pm 12:54 Partly Cloudy 95 35 73 22.8 49 49 SW 15 24 29.94 1014 10 16 0.00 0.00
1:54 pm 13:54 Partly Cloudy 95 35 73 22.8 49 49 SW 15 24 29.93 1013 10 16 0.00 0.00
2:54 pm 14:54 Partly Cloudy 97 36.1 73 22.8 46 46 WSW 16 26 29.92 1013 10 16 0.00 0.00
3:54 pm 15:54 Partly Cloudy 97 36.1 72 22.2 45 45 WSW 16 26 29.90 1013 10 16 0.00 0.00
4:54 pm 16:54 Partly Cloudy 97 36.1 72 22.2 45 45 WSW 15 24 29.90 1013 10 16 0.00 0.00
5:54 pm 17:54 Partly Cloudy 96 35.6 73 22.8 48 48 WSW 15 24 29.91 1013 10 16 0.00 0.00
6:02 pm 18:02 Mostly Cloudy with Thunderstorms 95 35 74 23.3 51 51 WSW 13 20 29.91 1013 10 16 0.00 0.00
6:22 pm 18:22 Mostly Cloudy with Thunderstorms 90 32.2 73 22.8 58 58 W 18 30 29.94 1014 5 8 0.01 0.13
6:29 pm 18:29 Mostly Cloudy with Strong Thunderstorms 84 28.9 77 25 80 80 W 22 35 29.94 1014 2 3 0.04 1.02
6:36 pm 18:36 Windy with Storms Likely 82 27.8 75 23.9 79 79 SW 26 43 29.93 1013 2 2 0.07 1.78
6:44 pm 18:44 Mostly Cloudy with Thunderstorms 83 28.3 73 22.8 72 72 SSW 13 20 29.93 1013 6 10 0.09 2.29
6:54 pm 18:54 Mostly Cloudy with Thunderstorms 85 29.4 73 22.8 68 68 WSW 10 17 29.92 1013 10 16 0.09 2.29
7:03 pm 19:03 Mostly Cloudy with Thunderstorms 84 28.9 73 22.8 70 70 SW 6 9 29.93 1013 10 16 0.01 0.13
7:13 pm 19:13 Mostly Cloudy 84 28.9 75 23.9 74 74 SW 5 7 29.93 1013 10 16 0.01 0.13
7:54 pm 19:54 Mostly Cloudy 83 28.3 76 24.4 79 79 Calm 29.94 1014 10 16 0.01 0.13
8:32 pm 20:32 Mostly Cloudy with Thunderstorms 83 28.3 76 24.4 79 79 Calm 29.95 1014 10 16 0.00 0.00
8:54 pm 20:54 Mostly Cloudy with Thunderstorms 85 29.4 77 25 77 77 W 12 19 29.97 1015 10 16 0.00 0.00
9:07 pm 21:07 Mostly Cloudy with Thunderstorms 84 28.9 73 22.8 70 70 NW 14 22 29.97 1015 10 16 0.00 0.00
9:46 pm 21:46 Cloudy with Thunderstorms 81 27.2 74 23.3 79 79 WNW 15 24 29.99 1016 6 10 0.01 0.13
9:54 pm 21:54 Cloudy with Thunderstorms 81 27.2 74 23.3 79 79 WNW 17 28 29.98 1015 5 8 0.01 0.25
10:02 pm 22:02 Cloudy with Thunderstorms 81 27.2 73 22.8 77 77 NW 13 20 29.99 1016 8 13 0.01 0.13
10:15 pm 22:15 Cloudy with Light Rain 81 27.2 73 22.8 77 77 W 7 11 29.98 1015 10 16 0.01 0.13
10:49 pm 22:49 Mostly Cloudy with Haze 81 27 73 23 79 79 W 9 15 29.98 1015 6 10 0.13 3.30
10:54 pm 22:54 Mostly Cloudy with Haze 81 27.2 74 23.3 79 79 W 8 13 29.98 1015 6 10 0.13 3.30
11:19 pm 23:19 Cloudy with Light Rain 80 26.7 75 23.9 85 85 W 10 17 29.98 1015 10 16 0.01 0.25
11:54 pm 23:54 Cloudy 80 26.7 75 23.9 85 85 WSW 7 11 29.98 1015 10 16 0.01 0.25

Powered by AerisWeather